Weather in Dubovychi

Ukraine / Sumi District     51°38′13″N   33°35′00″E
temp.,
°C
wind,
m/s
gust,
m/s
humid.,
%
clouds,
%
prec.,
mm/h
press.,
hPa
HPBL,
m
12 april, mon
mon1200:00+7ene3665100 0.0 102894
03:00+6ene3770100 0.0 1028117
06:00+5ne41170100 0.0 1027223
09:00+7ene61079100 0.1 1026431
12:00+10e4578100 0.2 1025441
15:00+14ene4670100 0.2 1023891
18:00+15ne3473100 0.0 1022123
21:00+12ne338597 0.0 102130
13 april, tue
tue1300:00+11ne2286100 0.0 102111
03:00+10se358678 0.0 102165
06:00+10ese41179100 0.0 1021207
09:00+14se6106828 0.0 1021498
12:00+16se696281 0.0 10201316
15:00+15sse696898 0.1 10201074
18:00+13s3680100 0.0 1020468
21:00+12s2488100 0.1 1020139
14 april, wed
wed1400:00+11sse2494100 0.4 1019117
03:00+10sse2293100 0.5 101960
06:00+10ese3594100 0.1 1018138
09:00+12sse4680100 0.6 1018429
12:00+15sse3466100 0.3 10171085
15:00+13sw4573100 2.0 1017683
18:00+14ssw236896 0.0 1016798
21:00+10s1183100 0.0 101710
15 april, thu
thu1500:00+10e2285100 0.1 101623
03:00+10e1185100 0.2 101611
06:00+10e2288100 0.1 101642
09:00+12ese2478100 0.4 1016162
12:00+14s2260100 0.1 1015701
15:00+15ne345793 0.1 10141232
18:00+14ene3568100 0.9 1013229
21:00+11nne478797 1.6 1013129
16 april, fri
fri1600:00+10nne4891100 0.1 1012169
03:00+10ne4890100 0.3 1011200
06:00+10s2287100 0.4 101138
09:00+10n1192100 1.3 101124
12:00+10ese2590100 2.1 1012312
15:00+14s236788 2.1 1012810
18:00+14ene3366100 0.0 1012838
21:00+11ene3486100 0.9 101369